Time,TemperatureF,DewpointF,PressureIn,WindDirection,WindDirectionDegrees,WindSpeedMPH,WindSpeedGustMPH,Humidity,HourlyPrecipIn,Conditions,Clouds,dailyrainin,SoftwareType,DateUTC
2013-01-26 00:05:00,22.7,19.4,30.07,South,175,0.0,0.0,87,0.00,,,0.00,Wunderground v.1.15,2013-01-26 05:05:00,
2013-01-26 00:09:00,22.7,19.4,30.07,South,175,0.0,0.0,87,0.00,,,0.00,Wunderground v.1.15,2013-01-26 05:09:00,
2013-01-26 00:14:00,22.6,19.3,30.07,South,175,0.0,0.0,87,0.00,,,0.00,Wunderground v.1.15,2013-01-26 05:14:00,
2013-01-26 00:20:00,22.5,19.2,30.07,South,175,0.0,0.0,87,0.00,,,0.00,Wunderground v.1.15,2013-01-26 05:20:00,
2013-01-26 00:24:00,22.5,19.2,30.07,South,175,0.0,0.0,87,0.00,,,0.00,Wunderground v.1.15,2013-01-26 05:24:00,
2013-01-26 00:29:00,22.4,19.1,30.06,South,175,0.0,0.0,87,0.00,,,0.00,Wunderground v.1.15,2013-01-26 05:29:00,
2013-01-26 00:34:00,22.4,19.1,30.06,South,175,0.0,0.0,87,0.00,,,0.00,Wunderground v.1.15,2013-01-26 05:34:00,
2013-01-26 00:39:00,22.3,19.0,30.06,South,175,0.0,0.0,87,0.00,,,0.00,Wunderground v.1.15,2013-01-26 05:39:00,
2013-01-26 00:45:00,22.2,19.2,30.06,South,175,0.0,0.0,88,0.00,,,0.00,Wunderground v.1.15,2013-01-26 05:45:00,
2013-01-26 00:54:00,22.2,19.2,30.06,South,175,0.0,0.0,88,0.00,,,0.00,Wunderground v.1.15,2013-01-26 05:54:00,
2013-01-26 01:00:00,22.2,19.2,30.06,South,175,0.0,0.0,88,0.00,,,0.00,Wunderground v.1.15,2013-01-26 06:00:00,
2013-01-26 01:05:00,22.2,19.2,30.07,South,175,0.0,0.0,88,0.00,,,0.00,Wunderground v.1.15,2013-01-26 06:05:00,
2013-01-26 01:14:00,22.2,19.2,30.07,South,175,0.0,0.0,88,0.00,,,0.00,Wunderground v.1.15,2013-01-26 06:14:00,
2013-01-26 01:19:00,22.2,19.2,30.07,South,175,0.0,0.0,88,0.00,,,0.00,Wunderground v.1.15,2013-01-26 06:19:00,
2013-01-26 01:29:00,22.2,19.2,30.07,South,175,0.0,0.0,88,0.00,,,0.00,Wunderground v.1.15,2013-01-26 06:29:00,
2013-01-26 01:34:00,22.2,19.2,30.07,South,175,0.0,0.0,88,0.00,,,0.00,Wunderground v.1.15,2013-01-26 06:34:00,
2013-01-26 01:44:00,22.2,19.2,30.07,South,175,0.0,0.0,88,0.00,,,0.00,Wunderground v.1.15,2013-01-26 06:44:00,
2013-01-26 01:50:00,22.3,19.3,30.07,South,175,0.0,0.0,88,0.00,,,0.00,Wunderground v.1.15,2013-01-26 06:50:00,
2013-01-26 01:59:00,22.2,19.2,30.08,South,175,0.0,0.0,88,0.00,,,0.00,Wunderground v.1.15,2013-01-26 06:59:00,
2013-01-26 02:05:00,22.3,19.3,30.08,South,175,0.0,0.0,88,0.00,,,0.00,Wunderground v.1.15,2013-01-26 07:05:00,
2013-01-26 02:14:00,22.2,19.2,30.08,South,175,0.0,0.0,88,0.00,,,0.00,Wunderground v.1.15,2013-01-26 07:14:00,
2013-01-26 02:19:00,22.1,19.1,30.08,South,175,0.0,0.0,88,0.00,,,0.00,Wunderground v.1.15,2013-01-26 07:19:00,
2013-01-26 02:25:00,22.1,19.1,30.08,South,175,0.0,0.0,88,0.00,,,0.00,Wunderground v.1.15,2013-01-26 07:25:00,
2013-01-26 02:34:00,22.1,19.1,30.08,South,175,0.0,0.0,88,0.00,,,0.00,Wunderground v.1.15,2013-01-26 07:34:00,
2013-01-26 02:44:00,22.0,19.0,30.08,South,176,0.0,0.0,88,0.00,,,0.00,Wunderground v.1.15,2013-01-26 07:44:00,
2013-01-26 02:49:00,22.1,19.1,30.08,South,175,0.0,0.0,88,0.00,,,0.00,Wunderground v.1.15,2013-01-26 07:49:00,
2013-01-26 02:59:00,22.2,19.2,30.08,South,175,0.0,0.0,88,0.00,,,0.00,Wunderground v.1.15,2013-01-26 07:59:00,
2013-01-26 03:05:00,22.2,19.2,30.08,South,175,0.0,0.0,88,0.00,,,0.00,Wunderground v.1.15,2013-01-26 08:05:00,
2013-01-26 03:14:00,22.1,19.1,30.09,South,175,0.0,0.0,88,0.00,,,0.00,Wunderground v.1.15,2013-01-26 08:14:00,
2013-01-26 03:19:00,22.1,19.1,30.09,South,175,0.0,0.0,88,0.00,,,0.00,Wunderground v.1.15,2013-01-26 08:19:00,
2013-01-26 03:24:00,22.2,19.2,30.09,South,175,0.0,0.0,88,0.00,,,0.00,Wunderground v.1.15,2013-01-26 08:24:00,
2013-01-26 03:34:00,22.3,19.3,30.08,South,175,0.0,0.0,88,0.00,,,0.00,Wunderground v.1.15,2013-01-26 08:34:00,
2013-01-26 03:39:00,22.4,19.4,30.08,South,175,0.0,0.0,88,0.00,,,0.00,Wunderground v.1.15,2013-01-26 08:39:00,
2013-01-26 03:49:00,22.4,19.1,30.08,South,175,0.0,0.0,87,0.00,,,0.00,Wunderground v.1.15,2013-01-26 08:49:00,
2013-01-26 03:55:00,22.4,19.4,30.09,South,175,0.0,0.0,88,0.00,,,0.00,Wunderground v.1.15,2013-01-26 08:55:00,
2013-01-26 04:05:00,22.2,19.2,30.09,South,175,0.0,0.0,88,0.00,,,0.00,Wunderground v.1.15,2013-01-26 09:05:00,
2013-01-26 04:14:00,22.1,19.1,30.09,South,175,0.0,0.0,88,0.00,,,0.00,Wunderground v.1.15,2013-01-26 09:14:00,
2013-01-26 04:24:00,22.2,19.2,30.10,South,175,0.0,0.0,88,0.00,,,0.00,Wunderground v.1.15,2013-01-26 09:24:00,
2013-01-26 04:30:00,22.2,19.2,30.10,South,175,0.0,0.0,88,0.00,,,0.00,Wunderground v.1.15,2013-01-26 09:30:00,
2013-01-26 04:39:00,22.3,19.6,30.10,South,175,0.0,0.0,89,0.00,,,0.00,Wunderground v.1.15,2013-01-26 09:39:00,
2013-01-26 04:49:00,22.3,19.3,30.11,South,176,0.0,0.0,88,0.00,,,0.00,Wunderground v.1.15,2013-01-26 09:49:00,
2013-01-26 04:54:00,22.2,19.2,30.11,South,175,0.0,0.0,88,0.00,,,0.00,Wunderground v.1.15,2013-01-26 09:54:00,
2013-01-26 05:00:00,22.2,19.2,30.11,South,175,0.0,0.0,88,0.00,,,0.00,Wunderground v.1.15,2013-01-26 10:00:00,
2013-01-26 05:05:00,22.2,19.2,30.11,South,175,0.0,0.0,88,0.00,,,0.00,Wunderground v.1.15,2013-01-26 10:05:00,
2013-01-26 05:14:00,22.2,19.2,30.12,South,175,0.0,0.0,88,0.00,,,0.00,Wunderground v.1.15,2013-01-26 10:14:00,
2013-01-26 05:20:00,22.3,19.6,30.12,South,175,0.0,0.0,89,0.00,,,0.00,Wunderground v.1.15,2013-01-26 10:20:00,
2013-01-26 05:29:00,22.4,19.4,30.12,South,175,0.0,0.0,88,0.00,,,0.00,Wunderground v.1.15,2013-01-26 10:29:00,
2013-01-26 05:39:00,22.3,19.3,30.13,South,175,0.0,0.0,88,0.00,,,0.00,Wunderground v.1.15,2013-01-26 10:39:00,
2013-01-26 05:44:00,22.3,19.3,30.13,South,175,0.0,0.0,88,0.00,,,0.00,Wunderground v.1.15,2013-01-26 10:44:00,
2013-01-26 05:50:00,22.3,19.3,30.13,South,175,0.0,0.0,88,0.00,,,0.00,Wunderground v.1.15,2013-01-26 10:50:00,
2013-01-26 05:59:00,22.3,19.3,30.13,South,175,0.0,0.0,88,0.00,,,0.00,Wunderground v.1.15,2013-01-26 10:59:00,
2013-01-26 06:05:00,22.2,19.2,30.14,South,175,0.0,0.0,88,0.00,,,0.00,Wunderground v.1.15,2013-01-26 11:05:00,
2013-01-26 06:14:00,22.2,19.2,30.14,South,175,0.0,0.0,88,0.00,,,0.00,Wunderground v.1.15,2013-01-26 11:14:00,
2013-01-26 06:19:00,22.3,19.6,30.15,South,175,0.0,0.0,89,0.00,,,0.00,Wunderground v.1.15,2013-01-26 11:19:00,
2013-01-26 06:29:00,22.4,19.6,30.15,South,175,0.0,0.0,89,0.00,,,0.00,Wunderground v.1.15,2013-01-26 11:29:00,
2013-01-26 06:34:00,22.5,19.5,30.15,South,175,0.0,0.0,88,0.00,,,0.00,Wunderground v.1.15,2013-01-26 11:34:00,
2013-01-26 06:44:00,22.6,19.6,30.16,South,175,0.0,0.0,88,0.00,,,0.00,Wunderground v.1.15,2013-01-26 11:44:00,
2013-01-26 06:50:00,22.5,19.5,30.16,South,175,0.0,0.0,88,0.00,,,0.00,Wunderground v.1.15,2013-01-26 11:50:00,
2013-01-26 06:59:00,22.5,19.5,30.16,South,175,0.0,0.0,88,0.00,,,0.00,Wunderground v.1.15,2013-01-26 11:59:00,
2013-01-26 07:05:00,22.5,19.5,30.16,South,175,0.0,0.0,88,0.00,,,0.00,Wunderground v.1.15,2013-01-26 12:05:00,
2013-01-26 07:14:00,22.4,19.4,30.17,South,175,0.0,0.0,88,0.00,,,0.00,Wunderground v.1.15,2013-01-26 12:14:00,
2013-01-26 07:19:00,22.3,19.3,30.17,South,175,0.0,0.0,88,0.00,,,0.00,Wunderground v.1.15,2013-01-26 12:19:00,
2013-01-26 07:29:00,22.2,19.2,30.17,South,174,0.0,0.0,88,0.00,,,0.00,Wunderground v.1.15,2013-01-26 12:29:00,
2013-01-26 07:34:00,22.2,19.5,30.18,South,174,0.0,0.0,89,0.00,,,0.00,Wunderground v.1.15,2013-01-26 12:34:00,
2013-01-26 07:40:00,22.3,19.6,30.18,South,176,0.0,0.0,89,0.00,,,0.00,Wunderground v.1.15,2013-01-26 12:40:00,
2013-01-26 07:49:00,22.4,19.4,30.18,South,174,0.0,0.0,88,0.00,,,0.00,Wunderground v.1.15,2013-01-26 12:49:00,
2013-01-26 07:59:00,22.4,19.4,30.19,South,176,0.0,0.0,88,0.00,,,0.00,Wunderground v.1.15,2013-01-26 12:59:00,
2013-01-26 08:05:00,22.5,19.5,30.20,South,177,0.0,0.0,88,0.00,,,0.00,Wunderground v.1.15,2013-01-26 13:05:00,
2013-01-26 08:14:00,22.5,19.5,30.20,South,175,0.0,0.0,88,0.00,,,0.00,Wunderground v.1.15,2013-01-26 13:14:00,
2013-01-26 08:19:00,22.6,19.6,30.20,South,176,0.0,0.0,88,0.00,,,0.00,Wunderground v.1.15,2013-01-26 13:19:00,
2013-01-26 08:24:00,22.7,19.7,30.20,South,176,0.0,0.0,88,0.00,,,0.00,Wunderground v.1.15,2013-01-26 13:24:00,
2013-01-26 08:34:00,22.9,19.9,30.20,South,175,0.0,0.0,88,0.00,,,0.00,Wunderground v.1.15,2013-01-26 13:34:00,
2013-01-26 08:40:00,23.0,20.0,30.20,South,176,0.0,0.0,88,0.00,,,0.00,Wunderground v.1.15,2013-01-26 13:40:00,
2013-01-26 08:49:00,23.3,20.0,30.21,South,174,0.0,0.0,87,0.00,,,0.00,Wunderground v.1.15,2013-01-26 13:49:00,
2013-01-26 08:59:00,23.6,20.3,30.22,South,174,0.0,0.0,87,0.00,,,0.00,Wunderground v.1.15,2013-01-26 13:59:00,
2013-01-26 09:05:00,23.8,20.8,30.22,South,176,0.0,0.0,88,0.00,,,0.00,Wunderground v.1.15,2013-01-26 14:05:00,
2013-01-26 09:15:00,24.1,20.8,30.22,South,177,0.0,0.0,87,0.00,,,0.00,Wunderground v.1.15,2013-01-26 14:15:00,
2013-01-26 09:24:00,24.7,21.1,30.23,South,175,0.0,0.0,86,0.00,,,0.00,Wunderground v.1.15,2013-01-26 14:24:00,
2013-01-26 09:34:00,25.0,21.1,30.23,South,176,0.0,0.0,85,0.00,,,0.00,Wunderground v.1.15,2013-01-26 14:34:00,
2013-01-26 09:39:00,25.1,21.2,30.23,South,174,0.0,0.0,85,0.00,,,0.00,Wunderground v.1.15,2013-01-26 14:39:00,
2013-01-26 09:49:00,25.3,20.9,30.24,South,176,0.0,0.0,83,0.00,,,0.00,Wunderground v.1.15,2013-01-26 14:49:00,
2013-01-26 09:54:00,25.5,21.3,30.24,South,175,0.0,0.0,84,0.00,,,0.00,Wunderground v.1.15,2013-01-26 14:54:00,
2013-01-26 10:05:00,26.0,21.5,30.24,WNW,303,0.0,0.0,83,0.00,,,0.00,Wunderground v.1.15,2013-01-26 15:05:00,
2013-01-26 10:14:00,26.5,22.0,30.24,WNW,303,0.0,0.0,83,0.00,,,0.00,Wunderground v.1.15,2013-01-26 15:14:00,
2013-01-26 10:24:00,27.0,21.9,30.24,WNW,303,0.0,1.0,81,0.00,,,0.00,Wunderground v.1.15,2013-01-26 15:24:00,
2013-01-26 10:29:00,27.3,22.2,30.24,NW,304,0.0,0.0,81,0.00,,,0.00,Wunderground v.1.15,2013-01-26 15:29:00,
2013-01-26 10:39:00,27.9,22.5,30.24,NW,308,0.0,0.0,80,0.00,,,0.00,Wunderground v.1.15,2013-01-26 15:39:00,
2013-01-26 10:44:00,28.3,23.2,30.24,NW,308,0.0,0.0,81,0.00,,,0.00,Wunderground v.1.15,2013-01-26 15:44:00,
2013-01-26 10:54:00,29.2,23.8,30.24,NW,308,0.0,1.0,80,0.00,,,0.00,Wunderground v.1.15,2013-01-26 15:54:00,
2013-01-26 11:05:00,29.9,23.6,30.24,NW,319,1.0,1.0,77,0.00,,,0.00,Wunderground v.1.15,2013-01-26 16:05:00,
2013-01-26 11:14:00,30.4,24.1,30.23,NW,322,0.0,0.0,77,0.00,,,0.00,Wunderground v.1.15,2013-01-26 16:14:00,
2013-01-26 11:19:00,30.8,24.4,30.23,NNW,327,0.0,0.0,77,0.00,,,0.00,Wunderground v.1.15,2013-01-26 16:19:00,
2013-01-26 11:29:00,31.9,25.2,30.23,NNW,328,0.0,0.0,76,0.00,,,0.01,Wunderground v.1.15,2013-01-26 16:29:00,
2013-01-26 11:35:00,32.4,25.7,30.23,NNW,328,0.0,0.0,76,0.00,,,0.01,Wunderground v.1.15,2013-01-26 16:35:00,
2013-01-26 11:44:00,33.2,25.5,30.23,NNW,328,0.0,0.0,73,0.00,,,0.01,Wunderground v.1.15,2013-01-26 16:44:00,
2013-01-26 11:50:00,33.7,26.6,30.23,NNW,328,0.0,1.0,75,0.00,,,0.01,Wunderground v.1.15,2013-01-26 16:50:00,
2013-01-26 11:59:00,34.3,26.5,30.22,ENE,60,0.0,0.0,73,0.00,,,0.02,Wunderground v.1.15,2013-01-26 16:59:00,
2013-01-26 12:05:00,34.4,27.0,30.22,ENE,60,0.0,1.0,74,0.00,,,0.02,Wunderground v.1.15,2013-01-26 17:05:00,
2013-01-26 12:14:00,35.1,26.6,30.21,South,172,1.0,2.0,71,0.00,,,0.02,Wunderground v.1.15,2013-01-26 17:14:00,
2013-01-26 12:19:00,35.2,26.7,30.21,ESE,122,1.0,1.0,71,0.00,,,0.02,Wunderground v.1.15,2013-01-26 17:19:00,
2013-01-26 12:25:00,35.4,26.6,30.21,SE,131,0.0,1.0,70,0.00,,,0.02,Wunderground v.1.15,2013-01-26 17:25:00,
2013-01-26 12:34:00,35.2,26.7,30.21,SW,214,1.0,1.0,71,0.00,,,0.03,Wunderground v.1.15,2013-01-26 17:34:00,
2013-01-26 12:44:00,35.1,27.0,30.21,SSW,201,0.0,1.0,72,0.00,,,0.03,Wunderground v.1.15,2013-01-26 17:44:00,
2013-01-26 12:54:00,34.9,26.1,30.20,SSE,164,0.0,2.0,70,0.00,,,0.03,Wunderground v.1.15,2013-01-26 17:54:00,
2013-01-26 12:59:00,35.0,26.9,30.20,SSE,164,1.0,1.0,72,0.00,,,0.03,Wunderground v.1.15,2013-01-26 17:59:00,
2013-01-26 13:05:00,35.1,26.6,30.20,South,170,0.0,1.0,71,0.00,,,0.03,Wunderground v.1.15,2013-01-26 18:05:00,
2013-01-26 13:14:00,35.3,26.8,30.19,South,170,0.0,0.0,71,0.00,,,0.03,Wunderground v.1.15,2013-01-26 18:14:00,
2013-01-26 13:19:00,35.3,27.2,30.20,South,172,0.0,0.0,72,0.00,,,0.03,Wunderground v.1.15,2013-01-26 18:19:00,
2013-01-26 13:29:00,35.4,27.3,30.19,South,172,0.0,0.0,72,0.00,,,0.03,Wunderground v.1.15,2013-01-26 18:29:00,
2013-01-26 13:34:00,35.5,27.4,30.19,South,174,1.0,1.0,72,0.00,,,0.03,Wunderground v.1.15,2013-01-26 18:34:00,
2013-01-26 13:44:00,35.7,26.9,30.20,South,173,0.0,0.0,70,0.00,,,0.03,Wunderground v.1.15,2013-01-26 18:44:00,
2013-01-26 13:49:00,35.8,27.3,30.20,South,174,0.0,0.0,71,0.00,,,0.03,Wunderground v.1.15,2013-01-26 18:49:00,
2013-01-26 13:59:00,35.9,27.1,30.20,South,174,0.0,0.0,70,0.00,,,0.03,Wunderground v.1.15,2013-01-26 18:59:00,
2013-01-26 14:05:00,36.0,27.2,30.20,South,177,0.0,0.0,70,0.00,,,0.03,Wunderground v.1.15,2013-01-26 19:05:00,
2013-01-26 14:14:00,36.2,27.4,30.19,South,177,0.0,1.0,70,0.00,,,0.03,Wunderground v.1.15,2013-01-26 19:14:00,
2013-01-26 14:19:00,36.4,27.9,30.20,South,177,0.0,0.0,71,0.00,,,0.03,Wunderground v.1.15,2013-01-26 19:19:00,
2013-01-26 14:24:00,36.4,27.5,30.20,South,177,0.0,0.0,70,0.00,,,0.03,Wunderground v.1.15,2013-01-26 19:24:00,
2013-01-26 14:34:00,36.4,27.2,30.20,South,178,0.0,0.0,69,0.00,,,0.03,Wunderground v.1.15,2013-01-26 19:34:00,
2013-01-26 14:40:00,36.4,27.9,30.20,South,178,0.0,0.0,71,0.00,,,0.03,Wunderground v.1.15,2013-01-26 19:40:00,
2013-01-26 14:49:00,36.5,27.6,30.20,South,179,0.0,0.0,70,0.00,,,0.03,Wunderground v.1.15,2013-01-26 19:49:00,
2013-01-26 14:59:00,36.5,27.3,30.20,South,179,0.0,0.0,69,0.00,,,0.03,Wunderground v.1.15,2013-01-26 19:59:00,
2013-01-26 15:05:00,36.6,27.0,30.20,South,179,0.0,0.0,68,0.00,,,0.03,Wunderground v.1.15,2013-01-26 20:05:00,
2013-01-26 15:14:00,36.8,27.2,30.20,South,178,0.0,0.0,68,0.00,,,0.03,Wunderground v.1.15,2013-01-26 20:14:00,
2013-01-26 15:19:00,36.8,27.6,30.20,South,179,0.0,0.0,69,0.00,,,0.03,Wunderground v.1.15,2013-01-26 20:19:00,
2013-01-26 15:24:00,36.7,26.8,30.20,South,179,0.0,0.0,67,0.00,,,0.03,Wunderground v.1.15,2013-01-26 20:24:00,
2013-01-26 15:34:00,36.8,27.6,30.21,South,178,0.0,0.0,69,0.00,,,0.03,Wunderground v.1.15,2013-01-26 20:34:00,
2013-01-26 15:40:00,36.9,27.3,30.21,South,178,0.0,0.0,68,0.00,,,0.03,Wunderground v.1.15,2013-01-26 20:40:00,
2013-01-26 15:49:00,36.6,26.7,30.21,South,179,0.0,0.0,67,0.00,,,0.03,Wunderground v.1.15,2013-01-26 20:49:00,
2013-01-26 15:55:00,36.6,26.3,30.21,South,179,0.0,0.0,66,0.00,,,0.03,Wunderground v.1.15,2013-01-26 20:55:00,
2013-01-26 16:05:00,36.5,26.9,30.21,South,178,0.0,0.0,68,0.00,,,0.03,Wunderground v.1.15,2013-01-26 21:05:00,
2013-01-26 16:14:00,36.5,27.3,30.21,South,178,0.0,0.0,69,0.00,,,0.03,Wunderground v.1.15,2013-01-26 21:14:00,
2013-01-26 16:19:00,36.5,28.3,30.22,South,179,0.0,0.0,72,0.00,,,0.03,Wunderground v.1.15,2013-01-26 21:19:00,
2013-01-26 16:24:00,36.3,27.4,30.22,South,179,0.0,0.0,70,0.00,,,0.03,Wunderground v.1.15,2013-01-26 21:24:00,
2013-01-26 16:34:00,35.9,27.4,30.22,South,178,0.0,0.0,71,0.00,,,0.03,Wunderground v.1.15,2013-01-26 21:34:00,
2013-01-26 16:39:00,35.8,27.0,30.23,South,178,0.0,0.0,70,0.00,,,0.03,Wunderground v.1.15,2013-01-26 21:39:00,
2013-01-26 16:49:00,35.4,26.2,30.23,South,179,0.0,0.0,69,0.00,,,0.03,Wunderground v.1.15,2013-01-26 21:49:00,
2013-01-26 16:54:00,35.3,26.1,30.23,South,179,0.0,0.0,69,0.00,,,0.03,Wunderground v.1.15,2013-01-26 21:54:00,
2013-01-26 17:05:00,35.0,25.9,30.24,South,179,0.0,0.0,69,0.00,,,0.03,Wunderground v.1.15,2013-01-26 22:05:00,
2013-01-26 17:14:00,34.8,25.7,30.24,South,179,0.0,0.0,69,0.00,,,0.03,Wunderground v.1.15,2013-01-26 22:14:00,
2013-01-26 17:24:00,34.7,25.6,30.25,South,179,0.0,0.0,69,0.00,,,0.03,Wunderground v.1.15,2013-01-26 22:24:00,
2013-01-26 17:34:00,34.4,25.3,30.25,South,179,0.0,0.0,69,0.00,,,0.03,Wunderground v.1.15,2013-01-26 22:34:00,
2013-01-26 17:40:00,34.3,25.5,30.26,South,179,0.0,0.0,70,0.00,,,0.03,Wunderground v.1.15,2013-01-26 22:40:00,
2013-01-26 17:49:00,33.7,25.0,30.26,South,179,0.0,0.0,70,0.00,,,0.03,Wunderground v.1.15,2013-01-26 22:49:00,
2013-01-26 17:54:00,33.5,24.8,30.26,South,179,0.0,0.0,70,0.00,,,0.03,Wunderground v.1.15,2013-01-26 22:54:00,
2013-01-26 18:05:00,33.1,24.7,30.27,South,179,0.0,0.0,71,0.00,,,0.03,Wunderground v.1.15,2013-01-26 23:05:00,
2013-01-26 18:14:00,32.6,24.2,30.28,South,179,0.0,0.0,71,0.00,,,0.03,Wunderground v.1.15,2013-01-26 23:14:00,
2013-01-26 18:24:00,32.3,24.3,30.28,South,179,0.0,0.0,72,0.00,,,0.03,Wunderground v.1.15,2013-01-26 23:24:00,
2013-01-26 18:34:00,32.0,24.3,30.28,South,179,0.0,0.0,73,0.00,,,0.03,Wunderground v.1.15,2013-01-26 23:34:00,
2013-01-26 18:39:00,31.7,24.0,30.28,South,179,0.0,0.0,73,0.00,,,0.03,Wunderground v.1.15,2013-01-26 23:39:00,
2013-01-26 18:49:00,31.3,24.0,30.29,South,179,0.0,0.0,74,0.00,,,0.03,Wunderground v.1.15,2013-01-26 23:49:00,
2013-01-26 18:54:00,31.1,24.1,30.29,South,179,0.0,0.0,75,0.00,,,0.03,Wunderground v.1.15,2013-01-26 23:54:00,
2013-01-26 19:05:00,30.7,24.0,30.29,South,179,0.0,0.0,76,0.00,,,0.03,Wunderground v.1.15,2013-01-27 00:05:00,
2013-01-26 19:14:00,30.4,23.7,30.30,South,179,0.0,0.0,76,0.00,,,0.03,Wunderground v.1.15,2013-01-27 00:14:00,
2013-01-26 19:24:00,30.2,23.9,30.30,South,179,0.0,0.0,77,0.00,,,0.03,Wunderground v.1.15,2013-01-27 00:24:00,
2013-01-26 19:29:00,30.1,24.1,30.31,South,179,0.0,0.0,78,0.00,,,0.03,Wunderground v.1.15,2013-01-27 00:29:00,
2013-01-26 19:39:00,29.8,23.8,30.31,South,179,0.0,0.0,78,0.00,,,0.03,Wunderground v.1.15,2013-01-27 00:39:00,
2013-01-26 19:44:00,29.7,24.0,30.31,South,179,0.0,0.0,79,0.00,,,0.03,Wunderground v.1.15,2013-01-27 00:44:00,
2013-01-26 19:54:00,29.4,23.7,30.31,South,179,0.0,0.0,79,0.00,,,0.03,Wunderground v.1.15,2013-01-27 00:54:00,
2013-01-26 19:59:00,29.3,23.9,30.32,South,179,0.0,0.0,80,0.00,,,0.03,Wunderground v.1.15,2013-01-27 00:59:00,
2013-01-26 20:05:00,29.3,23.9,30.32,South,179,0.0,0.0,80,0.00,,,0.03,Wunderground v.1.15,2013-01-27 01:05:00,
2013-01-26 20:14:00,29.2,23.8,30.32,South,179,0.0,0.0,80,0.00,,,0.03,Wunderground v.1.15,2013-01-27 01:14:00,
2013-01-26 20:19:00,29.0,23.9,30.32,South,179,0.0,0.0,81,0.00,,,0.03,Wunderground v.1.15,2013-01-27 01:19:00,
2013-01-26 20:29:00,28.8,23.7,30.33,South,179,0.0,0.0,81,0.00,,,0.03,Wunderground v.1.15,2013-01-27 01:29:00,
2013-01-26 20:34:00,28.6,23.5,30.33,South,179,0.0,0.0,81,0.00,,,0.03,Wunderground v.1.15,2013-01-27 01:34:00,
2013-01-26 20:44:00,28.5,23.4,30.34,South,179,0.0,0.0,81,0.00,,,0.03,Wunderground v.1.15,2013-01-27 01:44:00,
2013-01-26 20:54:00,28.0,23.2,30.34,South,179,0.0,0.0,82,0.00,,,0.03,Wunderground v.1.15,2013-01-27 01:54:00,
2013-01-26 20:59:00,27.9,23.1,30.34,South,179,0.0,0.0,82,0.00,,,0.03,Wunderground v.1.15,2013-01-27 01:59:00,
2013-01-26 21:05:00,27.6,23.1,30.35,South,179,0.0,0.0,83,0.00,,,0.03,Wunderground v.1.15,2013-01-27 02:05:00,
2013-01-26 21:14:00,27.4,22.9,30.35,South,179,0.0,0.0,83,0.00,,,0.03,Wunderground v.1.15,2013-01-27 02:14:00,
2013-01-26 21:19:00,27.4,22.9,30.36,South,179,0.0,0.0,83,0.00,,,0.03,Wunderground v.1.15,2013-01-27 02:19:00,
2013-01-26 21:29:00,27.1,22.6,30.36,South,179,0.0,0.0,83,0.00,,,0.03,Wunderground v.1.15,2013-01-27 02:29:00,
2013-01-26 21:34:00,27.1,22.9,30.36,South,179,0.0,0.0,84,0.00,,,0.03,Wunderground v.1.15,2013-01-27 02:34:00,
2013-01-26 21:44:00,26.9,22.7,30.37,South,179,0.0,0.0,84,0.00,,,0.03,Wunderground v.1.15,2013-01-27 02:44:00,
2013-01-26 21:54:00,26.8,22.6,30.38,South,178,0.0,0.0,84,0.00,,,0.03,Wunderground v.1.15,2013-01-27 02:54:00,
2013-01-26 21:59:00,26.7,22.2,30.38,South,179,0.0,0.0,83,0.00,,,0.03,Wunderground v.1.15,2013-01-27 02:59:00,
2013-01-26 22:05:00,26.7,22.2,30.38,South,179,0.0,0.0,83,0.00,,,0.03,Wunderground v.1.15,2013-01-27 03:05:00,
2013-01-26 22:14:00,26.7,22.2,30.39,South,179,0.0,0.0,83,0.00,,,0.03,Wunderground v.1.15,2013-01-27 03:14:00,
2013-01-26 22:19:00,26.8,22.0,30.39,South,179,0.0,0.0,82,0.00,,,0.03,Wunderground v.1.15,2013-01-27 03:19:00,
2013-01-26 22:29:00,26.7,22.2,30.39,South,178,0.0,0.0,83,0.00,,,0.03,Wunderground v.1.15,2013-01-27 03:29:00,
2013-01-26 22:34:00,26.2,22.0,30.39,South,179,0.0,0.0,84,0.00,,,0.03,Wunderground v.1.15,2013-01-27 03:34:00,
2013-01-26 22:44:00,25.4,21.5,30.40,South,179,0.0,0.0,85,0.00,,,0.03,Wunderground v.1.15,2013-01-27 03:44:00,
2013-01-26 22:49:00,25.1,21.2,30.41,South,179,0.0,0.0,85,0.00,,,0.03,Wunderground v.1.15,2013-01-27 03:49:00,
2013-01-26 22:59:00,24.9,21.6,30.41,South,179,0.0,0.0,87,0.00,,,0.03,Wunderground v.1.15,2013-01-27 03:59:00,
2013-01-26 23:05:00,24.8,21.5,30.41,South,179,0.0,0.0,87,0.00,,,0.03,Wunderground v.1.15,2013-01-27 04:05:00,
2013-01-26 23:14:00,24.7,21.4,30.42,South,179,0.0,0.0,87,0.00,,,0.03,Wunderground v.1.15,2013-01-27 04:14:00,
2013-01-26 23:19:00,24.5,21.2,30.42,South,179,0.0,0.0,87,0.00,,,0.03,Wunderground v.1.15,2013-01-27 04:19:00,
2013-01-26 23:24:00,24.4,21.4,30.42,South,179,0.0,0.0,88,0.00,,,0.03,Wunderground v.1.15,2013-01-27 04:24:00,
2013-01-26 23:34:00,24.3,21.3,30.42,South,179,0.0,0.0,88,0.00,,,0.03,Wunderground v.1.15,2013-01-27 04:34:00,
2013-01-26 23:39:00,24.3,21.3,30.42,South,179,0.0,0.0,88,0.00,,,0.03,Wunderground v.1.15,2013-01-27 04:39:00,
2013-01-26 23:49:00,24.4,21.6,30.42,South,179,0.0,0.0,89,0.00,,,0.03,Wunderground v.1.15,2013-01-27 04:49:00,
2013-01-26 23:59:00,24.4,21.6,30.43,South,179,0.0,0.0,89,0.00,,,0.03,Wunderground v.1.15,2013-01-27 04:59:00,